Location: Ferenbalm
(46.9489°N, 7.2142°E)
Time: 07:17:52
(UTC+00:00)

Daily predictions for brighter satellites

Satellite Brightness Start Highest point End
(mag) Time Altitude Azimuth Time Altitude Azimuth Time Altitude Azimuth
Cosmos 1727 Rocket 4.1 19:16:06 10° N 19:22:27 67° E 19:28:46 10° SSE
Cosmos 2251 Rocket 3.5 19:17:57 10° SSW 19:23:10 73° ESE 19:28:28 10° NNE
Cosmos 1656 3.8 19:21:40 10° NNW 19:27:08 65° ENE 19:32:37 10° SE
Cosmos 1633 3.3 19:27:26 10° SSW 19:30:55 57° WNW 19:34:25 10° N
Cosmos 220 Rocket 4.5 19:27:40 10° N 19:31:44 44° ENE 19:35:46 10° SE
Resurs 01 Rocket 2.1 19:28:36 10° SE 19:32:48 45° ENE 19:37:03 10° N
Cosmos 972 Rocket 3.9 19:28:37 10° NNW 19:33:41 85° ENE 19:38:33 10° SSE
Cosmos 1441 Rocket 3.7 19:34:37 10° SSE 19:38:08 37° E 19:41:39 10° NNE
IRIDIUM 114 4.4 19:35:41 10° SSE 19:40:46 58° E 19:45:54 10° N
Cosmos 614 Rocket 4.2 19:36:48 10° S 19:41:42 46° ESE 19:46:40 10° NNE
Cosmos 1900 4.3 19:40:01 10° SSW 19:44:56 81° ESE 19:50:00 10° NE
USA 267 3.3 19:42:01 10° ENE 19:48:29 57° SE 19:54:53 10° SW
IRIDIUM 103 4.3 19:44:43 10° S 19:49:54 70° E 19:55:06 10° N
GP-B 4.4 19:46:42 10° NNE 19:50:18 24° E 19:53:13 13° SE
Cosmos 1821 Rocket 4.1 19:46:04 10° S 19:52:04 60° E 19:58:10 10° NNE
COSMOS 2406 3.2 19:48:19 10° SSW 19:54:01 69° ESE 19:59:44 10° NNE
Shenzhou-11 Module 2.5 19:52:18 10° WSW 19:54:24 27° S 19:55:30 19° SE
Cosmos 1743 Rocket 4.4 19:50:51 10° SSW 19:55:12 55° WNW 19:59:37 10° N
CZ-2C R/B 3.7 19:51:48 10° NNE 19:56:29 83° ESE 20:01:01 10° SSW
SL-16 R/B 4.2 19:53:59 10° N 19:57:32 17° NE 20:01:04 10° ENE
Intercosmos 25 3.3 19:53:38 10° N 19:58:15 70° ENE 20:01:26 11° SSE
ERS-1 Rocket 4.2 19:56:08 12° ESE 19:59:41 26° ENE 20:03:46 10° N
Lacrosse 5 3.5 19:56:02 10° NW 20:00:29 29° NNE 20:04:56 10° ENE
Cosmos 2369 3.9 19:57:37 10° NNW 20:03:20 65° ENE 20:08:05 15° SE
Cosmos 1862 3.4 19:59:21 10° SSW 20:03:23 81° W 20:07:28 10° N
Sich 1 3.1 19:59:55 10° S 20:04:18 66° E 20:08:43 10° NNE
Cosmos 1818 3.6 20:02:30 10° NW 20:08:00 90° NE 20:12:24 16° SE
BREEZE-M DEB (TANK) 2.5 20:04:55 10° W 20:08:10 52° N 20:09:55 12° ENE
IRIDIUM 106 4.4 20:02:58 10° S 20:08:11 83° W 20:13:27 10° N
Cosmos 2082 Rocket 2.7 20:04:00 10° S 20:09:14 39° ESE 20:14:28 10° NE
Cosmos 2278 4.1 20:06:59 10° NNW 20:12:36 53° ENE 20:16:44 18° SE
Cosmos 2123 Rocket 4.2 20:06:53 10° N 20:13:00 57° ENE 20:18:06 15° SSE
Spot 2 Rocket 3.7 20:11:25 16° SSE 20:15:29 59° ENE 20:20:31 10° N
Cosmos 2322 Rocket 4.1 20:16:10 10° N 20:20:10 19° NE 20:24:09 10° E
Meteor 1-4 Rocket 2.6 20:17:16 10° N 20:20:41 53° ENE 20:22:26 25° SE
Cosmos 2239 Rocket 4.4 20:15:15 10° S 20:21:22 84° E 20:27:33 10° N
Cosmos 1184 Rocket 3.7 20:21:02 26° SE 20:21:55 30° E 20:24:51 10° NNE
Cosmos 1190 Rocket 4.0 20:16:49 10° S 20:22:00 62° ESE 20:27:15 10° NNE
CARTOSAT-1 4.5 20:20:05 20° ESE 20:22:21 34° ENE 20:26:16 10° N
Terra 3.1 20:21:08 17° ESE 20:23:36 26° ENE 20:27:29 10° N
CZ-2C R/B 4.0 20:19:15 10° N 20:24:03 39° WNW 20:28:51 10° SW
USA 234 3.3 20:18:46 16° ESE 20:24:09 77° NNE 20:30:42 10° NW
Cosmos 407 Rocket 3.5 20:19:36 10° SSW 20:24:56 79° ESE 20:30:15 10° NNE
Cosmos 1605 Rocket 4.4 20:21:08 16° SSE 20:25:34 42° E 20:31:15 10° NNE
Cosmos 1666 Rocket 3.4 20:21:36 10° S 20:25:53 74° E 20:30:14 10° NNE
Cosmos 1238 Rocket 3.6 20:28:02 22° E 20:28:02 22° E 20:30:14 10° NE
MetOp-B 4.2 20:25:44 14° SSE 20:30:27 80° WSW 20:35:52 10° NNW
Meteor 1-27 Rocket 4.0 20:25:32 10° NNW 20:31:27 77° W 20:36:53 13° S
Cosmos 2360 Rocket 4.4 20:30:54 10° N 20:34:05 15° NE 20:37:16 10° ENE
Cosmos 1437 Rocket 4.4 20:31:51 10° NNE 20:34:35 18° ENE 20:35:27 17° E
BREEZE-M DEB (TANK) 4.0 20:34:49 10° W 20:37:23 15° WSW 20:39:00 11° SSW
SPOT 5 3.2 20:35:54 26° ESE 20:37:49 41° ENE 20:41:55 10° N
USA 238 DEB 4.0 20:31:44 10° S 20:37:49 41° ESE 20:44:07 10° NE
USA 238 4.0 20:31:52 10° S 20:37:56 40° ESE 20:44:13 10° NE
SPOT 1/Viking Rocket 3.5 20:39:53 22° SSE 20:43:20 84° ENE 20:48:36 10° NNW
Cosmos 1980 Rocket 2.2 20:38:06 10° NNW 20:43:50 79° ENE 20:47:05 27° SSE
Cosmos 2242 Rocket 4.2 20:41:48 10° N 20:46:00 40° ENE 20:47:28 30° ESE
SL-4 R/B 1.6 20:44:02 10° SW 20:47:57 71° SSE 20:51:35 10° ENE
Cosmos 1763 Rocket 4.5 20:43:48 10° N 20:48:41 35° ENE 20:51:08 24° ESE
BREEZE-M DEB (TANK) 2.9 20:46:12 10° W 20:49:01 67° N 20:56:42 10° E
Genesis I 3.1 20:45:31 10° NW 20:49:25 74° NE 20:50:44 39° SE
Cosmos 405 Rocket 3.2 20:49:21 35° ESE 20:49:39 36° E 20:53:05 10° NNE
Cosmos 1140 Rocket 3.6 20:45:21 10° SSW 20:50:36 82° WNW 20:55:54 10° NNE
ATLAS 5 CENTAUR R/B 3.7 20:47:11 10° WNW 20:52:20 31° WSW 20:57:17 13° S
USA 32 3.9 20:53:02 21° S 20:56:36 82° E 21:01:52 10° N
Cosmos 1633 Rocket 3.5 20:55:05 11° SSW 20:59:13 61° W 21:03:37 10° N
Cosmos 1697 Rocket 3.5 20:54:05 10° NW 20:59:25 45° WSW 21:03:04 19° S
Cosmos 1833 Rocket 3.4 20:54:22 10° SW 20:59:53 56° WNW 21:05:27 10° NNE
Cosmos 1867 3.5 21:00:50 10° SSW 21:06:16 80° SE 21:11:45 10° NE
CENTAUR R/B 3.0 21:04:45 31° SE 21:06:24 37° ESE 21:12:32 10° NE
Meteor 1-18 Rocket 4.2 21:01:54 10° N 21:07:30 67° ENE 21:09:50 35° SSE
Okean 1-7 3.5 21:03:32 10° N 21:07:41 43° ENE 21:08:30 38° ESE
Resurs 01 Rocket 3.9 21:06:14 10° SW 21:09:31 20° W 21:12:49 10° NW
FALCON 9 DEB 3.0 21:10:08 10° WSW 21:13:38 88° SSE 21:15:22 28° ENE
Cosmos 1447 Rocket 4.5 21:08:17 10° N 21:14:41 80° E 21:17:47 33° SSE
Cosmos 1850 Rocket 4.4 21:14:19 39° SE 21:15:19 43° ESE 21:20:18 10° NE
Meteor 2-4 Rocket 4.2 21:11:39 10° N 21:17:08 45° ENE 21:18:53 35° ESE
Cosmos 1515 3.8 21:14:20 10° N 21:18:07 55° ENE 21:18:22 54° E
Cosmos 676 Rocket 4.2 21:14:12 10° SSW 21:19:30 74° WNW 21:24:53 10° NNE
ATLAS 5 CENTAUR R/B 3.3 21:18:57 10° NNW 21:21:24 29° NE 21:23:25 21° E
Meteor 1-25 Rocket 4.2 21:17:53 21° SSW 21:21:40 79° WNW 21:27:19 10° N
Cosmos 1470 Rocket 3.9 21:19:31 26° SSW 21:21:56 63° WNW 21:26:19 10° N
GP-B 4.4 21:23:37 10° NNW 21:27:42 36° W 21:30:41 16° SW
USA 267 3.8 21:25:07 10° NE 21:31:31 59° NNW 21:37:54 10° WSW
NOSS 3-2 (A) 3.3 21:26:36 10° SW 21:32:19 86° SE 21:38:53 10° NE
Cosmos 921 Rocket 3.3 21:29:55 10° NNW 21:34:04 55° WSW 21:34:50 47° SW
ERS-1 Rocket 3.7 21:36:08 30° SSW 21:38:13 47° W 21:43:05 10° NNW
NOSS 3-2 (C) 3.3 21:35:51 35° S 21:38:14 62° ESE 21:44:37 10° NE
Cosmos 841 Rocket 4.0 21:35:43 10° NNW 21:40:48 49° ENE 21:42:00 41° ESE
Cosmos 540 Rocket 3.9 21:37:13 10° NNW 21:42:15 48° ENE 21:43:22 41° E
SL-16 R/B 2.2 21:37:02 10° NNW 21:42:44 71° ENE 21:44:17 48° SE
Lacrosse 5 2.0 21:39:05 10° NW 21:44:10 70° NE 21:45:31 47° E
Cosmos 468 Rocket 4.0 21:39:08 10° NNW 21:44:28 78° WSW 21:45:45 52° S
Cosmos 1741 Rocket 3.9 21:48:22 52° S 21:49:41 79° ESE 21:54:59 10° NNE
Cosmos 1570 Rocket 4.2 21:46:50 10° NNW 21:52:08 62° ENE 21:53:10 51° ESE
Cosmos 2082 Rocket 3.5 21:48:02 10° WSW 21:53:19 39° NW 21:58:38 10° NNE
Cosmos 2219 Rocket 4.2 21:49:15 10° N 21:53:24 20° NE 21:56:38 13° E
Cosmos 2208 Rocket 4.3 21:49:01 10° NNW 21:54:13 54° ENE 21:55:11 47° ESE
Cosmos 1814 Rocket 4.4 21:49:30 10° NNW 21:54:35 52° ENE 21:55:32 46° E
Terra 2.6 22:00:02 37° SW 22:01:08 43° W 22:05:40 10° NNW
Cosmos 2322 Rocket 2.1 21:59:21 10° NNW 22:05:06 85° ENE 22:06:13 60° SE
USA 234 3.9 22:06:06 34° SSW 22:07:30 38° SW 22:13:32 10° WNW
Cosmos 2100 Rocket 3.9 22:05:36 45° SSW 22:07:39 83° W 22:13:50 10° N
Meteor 1-11 Rocket 3.8 22:09:09 54° ESE 22:09:41 57° E 22:15:17 10° NNE
Cosmos 1437 Rocket 3.9 22:07:29 10° NNW 22:10:50 35° W 22:10:50 35° W
Cosmos 1242 Rocket 4.2 22:09:49 10° N 22:12:07 27° NE 22:12:07 27° NE
Cosmos 1869 Rocket 3.7 22:13:01 63° WSW 22:13:19 65° W 22:17:46 10° N
SPOT 5 4.5 22:15:08 19° WSW 22:16:07 21° W 22:19:25 10° NW
Cosmos 2360 Rocket 2.4 22:13:39 10° NNW 22:19:18 62° ENE 22:20:19 53° ESE
COSMOS 2428 4.3 22:15:16 10° N 22:20:03 26° NE 22:22:36 20° E
Geosat 3.9 22:20:48 72° SSW 22:21:11 76° WSW 22:26:15 10° NNW
ATLAS 3B R/B 2.8 22:21:12 48° ESE 22:21:17 48° ESE 22:27:36 10° NE
Iridium 4 Rocket 3.4 22:21:45 58° W 22:21:52 58° W 22:26:04 10° N
Cosmos 2173 Rocket 4.1 22:21:11 43° SSW 22:23:15 69° W 22:29:23 10° N
Cosmos 1500 4.2 22:25:10 43° NW 22:25:10 43° NW 22:28:22 10° N
CRYOSAT 2 4.2 22:21:46 10° N 22:26:42 84° E 22:26:46 84° ESE
Cosmos 1980 Rocket 4.1 22:23:32 10° WNW 22:27:07 17° W 22:28:51 15° WSW
ALOS 2 3.3 22:27:44 45° ENE 22:27:44 45° ENE 22:31:42 10° N
SL-4 R/B 3.0 22:24:07 10° W 22:27:13 40° NW 22:27:13 40° NW
Cosmos 1725 Rocket 3.9 22:27:19 60° SSE 22:28:30 77° E 22:34:51 10° NNE
USA 238 DEB 4.4 22:22:07 10° WSW 22:28:37 53° NW 22:35:26 10° NE
USA 238 4.3 22:22:13 10° WSW 22:28:43 53° NW 22:35:32 10° NE
Cosmos 1763 Rocket 4.4 22:25:39 10° NW 22:30:31 37° WSW 22:31:09 35° WSW
SL-08 R/B 4.3 22:32:19 63° S 22:33:22 85° E 22:39:29 10° N
Cosmos 1536 3.6 22:34:39 48° NNE 22:34:39 48° NNE 22:37:38 10° NNE
Cosmos 1674 Rocket 4.1 22:29:32 10° N 22:33:13 49° NE 22:33:13 49° NE
Cosmos 1666 3.7 22:37:32 43° N 22:37:32 43° N 22:40:11 10° N
Cosmos 2333 Rocket 3.1 22:34:17 10° NNW 22:39:45 41° NE 22:41:19 34° E
Cosmos 2016 Rocket 4.1 22:39:51 52° SSW 22:41:27 74° W 22:47:51 10° N
Cosmos 1271 Rocket 4.3 22:38:19 10° N 22:40:47 29° NE 22:40:47 29° NE
Meteor 1-13 Rocket 4.3 22:37:21 10° NNW 22:42:47 60° W 22:43:23 56° SW
Cosmos 2061 Rocket 4.0 22:41:23 53° SW 22:42:51 72° W 22:49:05 10° N
Lacrosse 4 Rocket 3.4 22:45:23 21° ENE 22:45:23 21° ENE 22:47:03 10° NE
Cosmos 2237 Rocket 4.4 22:39:37 10° N 22:43:29 18° NE 22:47:19 10° E
MOS 1-B Rocket 4.1 22:39:41 10° N 22:45:20 64° WNW 22:46:44 48° SW
Cosmos 2221 Rocket 4.2 22:42:29 10° NNW 22:46:29 51° WNW 22:46:29 51° WNW
Cosmos 1733 Rocket 3.4 22:50:59 64° N 22:50:59 64° N 22:54:47 10° N
Cosmos 1066 Rocket 4.0 22:47:36 10° NNW 22:53:22 84° W 22:53:46 77° SSW
Meteor 1-23 Rocket 4.1 22:49:19 10° NNW 22:55:11 85° W 22:55:43 75° S
Thor Agena Rocket 3.6 22:51:32 10° N 22:56:35 67° WNW 22:57:00 63° W
CENTAUR R/B 3.2 22:51:50 16° WSW 22:56:45 55° NW 23:03:54 10° NE
Cosmos 968 Rocket 4.2 22:59:01 41° ENE 22:59:01 41° ENE 23:03:03 10° NNE
Cosmos 967 Rocket 4.5 22:54:20 10° NW 23:00:36 61° WSW 23:01:03 60° SW
Cosmos 44 4.1 22:57:36 10° NW 23:01:33 44° W 23:01:33 44° W
Cosmos 2233 Rocket 4.0 23:14:31 63° SW 23:15:31 76° W 23:21:53 10° N
Cosmos 1464 Rocket 4.5 23:15:36 44° ESE 23:16:13 45° E 23:22:05 10° NNE
Cosmos 1908 Rocket 4.2 23:18:33 53° NNE 23:18:33 53° NNE 23:21:59 10° NNE
Cosmos 2227 Rocket 4.4 23:22:42 12° E 23:22:42 12° E 23:24:40 10° ENE
SL-16 R/B 3.9 23:22:17 10° NW 23:26:08 20° W 23:26:08 20° W
Lacrosse 5 3.7 23:22:33 10° WNW 23:24:41 20° W 23:24:41 20° W
Cosmos 1833 4.3 23:28:44 59° W 23:29:28 65° WNW 23:35:08 10° NNE
Cosmos 2322 3.6 23:23:55 10° NNW 23:29:31 74° WSW 23:29:31 74° WSW
Cosmos 1378 Rocket 4.4 23:25:20 10° NNW 23:28:49 44° NW 23:28:49 44° NW
Nadezhda 4 Rocket 4.5 23:30:40 10° N 23:36:47 50° ENE 23:38:04 44° ESE
Cosmos 2219 Rocket 2.0 23:32:26 10° NNW 23:38:10 89° WSW 23:38:19 85° SSE
Cosmos 1975 Rocket 3.6 23:38:39 10° N 23:42:25 59° NNE 23:42:25 59° NNE
Cosmos 1513 Rocket 4.4 23:42:38 66° SE 23:43:25 75° E 23:49:50 10° NNE
Cosmos 2333 4.4 23:38:17 10° NNW 23:43:44 58° W 23:43:44 58° W
Cosmos 2034 Rocket 4.3 23:43:53 50° ESE 23:44:39 53° E 23:50:46 10° NNE
Okean 2 Rocket 4.5 23:45:22 31° ENE 23:45:22 31° ENE 23:48:43 10° NNE
Cosmos 1503 Rocket 4.0 23:45:55 77° E 23:45:55 77° E 23:51:07 10° NNE
Cosmos 1072 Rocket 4.3 23:46:51 74° SSE 23:47:25 83° E 23:53:34 10° N
Cosmos 2322 Rocket 4.2 23:45:02 10° WNW 23:48:01 16° W 23:48:01 16° W
Helios 1A 3.9 23:49:48 44° NW 23:49:48 44° NW 23:52:52 10° NNW
SL-16 R/B 4.2 23:46:15 15° ESE 23:50:12 28° ENE 23:55:20 10° N
Cosmos 1486 Rocket 4.3 23:52:11 54° WNW 23:52:29 55° WNW 23:57:37 10° NNE
SL-16 R/B 4.3 23:49:24 10° N 23:53:50 23° NE 23:58:15 10° E
CZ-2D R/B 4.1 23:50:29 10° NE 23:53:57 17° E 23:54:54 16° ESE
Sich 1 Rocket 4.2 23:55:31 51° NE 23:55:31 51° NE 23:59:02 10° NNE
